This is the latest recevied weather packets stored in our database for station/object WD7OO. If no packets are shown the sender has not sent any weather packets the latest 10 day(s).
| Time | Temp. | Humidity | Pressure | Rain* | Wind** | Luminosity | Snow |
|---|---|---|---|---|---|---|---|
| 1777414992 | 16.67° C | 64% | 1013.7 hPa | 0 mm | - | 279 W/m² | - |
| 1777414692 | 16.11° C | 68% | 1013.8 hPa | 0 mm | - | 294 W/m² | - |
| 1777414388 | 16.11° C | 68% | 1013.9 hPa | 0 mm | - | 131 W/m² | - |
| 1777414088 | 17.22° C | 67% | 1014.1 hPa | 0 mm | - | 155 W/m² | - |
| 1777413783 | 17.22° C | 65% | 1014 hPa | 0 mm | - | 381 W/m² | - |
| 1777413478 | 16.67° C | 69% | 1013.9 hPa | 0 mm | - | 361 W/m² | - |
| 1777413175 | 17.22° C | 64% | 1013.8 hPa | 0 mm | - | 132 W/m² | - |
| 1777412875 | 17.78° C | 63% | 1013.9 hPa | 0 mm | - | 315 W/m² | - |
| 1777412570 | 16.67° C | 63% | 1013.9 hPa | 0 mm | - | 331 W/m² | - |
| 1777412267 | 17.22° C | 65% | 1013.8 hPa | 0 mm | - | 209 W/m² | - |
| 1777411963 | 16.67° C | 65% | 1014 hPa | 0 mm | - | 395 W/m² | - |
| 1777411662 | 16.11° C | 66% | 1014 hPa | 0 mm | - | 403 W/m² | - |
| 1777411357 | 16.11° C | 66% | 1014.2 hPa | 0 mm | - | 184 W/m² | - |
| 1777411056 | 17.22° C | 63% | 1014.3 hPa | 0 mm | - | 173 W/m² | - |
| 1777410751 | 16.67° C | 63% | 1014.2 hPa | 0 mm | - | 489 W/m² | - |
| 1777410445 | 17.22° C | 64% | 1013.9 hPa | 0 mm | - | 194 W/m² | - |
| 1777410144 | 16.67° C | 64% | 1013.5 hPa | 0 mm | - | 333 W/m² | - |
| 1777409839 | 16.67° C | 67% | 1013.9 hPa | 0 mm | - | 521 W/m² | - |
| 1777409535 | 16.67° C | 63% | 1013.8 hPa | 0 mm | - | 519 W/m² | - |
| 1777409230 | 16.67° C | 64% | 1013.8 hPa | 0 mm | - | 513 W/m² | - |
| 1777408927 | 16.11° C | 66% | 1013.7 hPa | 0 mm | - | 569 W/m² | - |
| 1777408623 | 16.67° C | 67% | 1013.5 hPa | 0 mm | - | 322 W/m² | - |
| 1777408319 | 16.67° C | 65% | 1013.7 hPa | 0 mm | - | 586 W/m² | - |
| 1777408018 | 16.67° C | 65% | 1013.7 hPa | 0 mm | - | 642 W/m² | - |
| 1777407716 | 16.67° C | 66% | 1013.7 hPa | 0 mm | - | 634 W/m² | - |
* Rain latest hour (hover to see other rain measurements)
** Current wind speed in m/s (hover to see current wind gust speed)